Regional Weather Roundup
Issued by NWS

Home | Current Version | Previous Version | Text Only | Print | Product List | Glossary On
Versions: 1 2 3 4 5 6 7 8 9 10 11 12 13 14 15 16 17 18 19 20 21 22 23 24 25 26 27 28 29 30 31 32 33 34 35 36 37 38 39 40 41 42 43 44 45 46 47 48 49 50
000
ASUS43 KTOP 260608
RWRKS

WEATHER ROUNDUP FOR KANSAS
NATIONAL WEATHER SERVICE GOODLAND KS
1200 AM CST MON JAN 26 2015

NOTE:  "FAIR" INDICATES FEW OR NO CLOUDS BELOW 12,000 FEET WITH NO
SIGNIFICANT WEATHER AND/OR OBSTRUCTIONS TO VISIBILITY.

KSZ001>006-013>018-027>032-041>047-260700-
NORTHWEST KANSAS

CITY           SKY/WX    TMP DP  RH WIND       PRES   REMARKS
GOODLAND       CLEAR     38  31  76 W13       30.12S WCI  30
6HR MIN TEMP:  33; 6HR MAX TEMP:  46;

HAYS           CLEAR     30  18  59 SW7       30.11S
HILL CITY      PTCLDY    33  21  61 W5        30.09S
6HR MIN TEMP:  27; 6HR MAX TEMP:  42;

RUSSELL        CLEAR     28  24  85 SW9       30.11R
6HR MIN TEMP:  27; 6HR MAX TEMP:  41;

$$

KSZ061>065-074>080-084>089-260700-
SOUTHWEST KANSAS

CITY           SKY/WX    TMP DP  RH WIND       PRES   REMARKS
DODGE CITY     CLEAR     30  20  66 SW8       30.15S
6HR MIN TEMP:  29; 6HR MAX TEMP:  44;

ELKHART          N/A     37  28  70 W6          N/A
GARDEN CITY    CLEAR     33  24  69 W6        30.13F
6HR MIN TEMP:  33; 6HR MAX TEMP:  48;

GREAT BEND     CLEAR     30  21  69 SW8       30.14S
LIBERAL        CLEAR     34  25  69 W6        30.19R
PRATT          CLEAR     28  23  80 SW5       30.15S
$$

KSZ066>073-081>083-090>101-260700-
SOUTHEAST KANSAS

CITY           SKY/WX    TMP DP  RH WIND       PRES   REMARKS
CHANUTE        PTCLDY    31  28  89 W3        30.13S
6HR MIN TEMP:  31; 6HR MAX TEMP:  42;

COFFEYVILLE    CLEAR     32  28  85 CALM      30.14S
6HR MIN TEMP:  31; 6HR MAX TEMP:  45;

HUTCHINSON     CLEAR     27  23  85 W3        30.14S
6HR MIN TEMP:  23; 6HR MAX TEMP:  46;

MEDICINE LODGE   N/A     30  23  75 CALM      30.16S
NEWTON         CLEAR     30  21  69 W6        30.15R
PARSONS        CLEAR     29  27  92 CALM      30.14S
6HR MIN TEMP:  29; 6HR MAX TEMP:  44;

WICHITA INTL   CLEAR     30  24  78 CALM      30.15R
6HR MIN TEMP:  27; 6HR MAX TEMP:  47;

WICHITA JABRA  CLEAR     32  27  81 W5        30.14R
6HR MIN TEMP:  29; 6HR MAX TEMP:  43;

WICHITA MCCONL CLEAR     35  29  78 CALM      30.15R
WINFIELD       CLEAR     27  23  85 CALM      30.16R
6HR MIN TEMP:  27; 6HR MAX TEMP:  45;

$$

KSZ007>012-019>026-033>040-048>060-102>105-260700-
NORTHEAST KANSAS

CITY           SKY/WX    TMP DP  RH WIND       PRES   REMARKS
CONCORDIA      PTCLDY    32  28  85 SW9       30.09S
6HR MIN TEMP:  28; 6HR MAX TEMP:  41;

EMPORIA        CLEAR     30  26  85 W5        30.12R
6HR MIN TEMP:  28; 6HR MAX TEMP:  40;

LAWRENCE       CLEAR     23  23 100 CALM      30.12S
6HR MIN TEMP:  23; 6HR MAX TEMP:  39;

MANHATTAN      CLEAR     25  23  92 CALM      30.12S
6HR MIN TEMP:  22; 6HR MAX TEMP:  40;

MARYSVILLE     MOCLDY    23  23 100 S5        30.08F
OLATHE IND     CLEAR     27  25  92 CALM      30.11S
6HR MIN TEMP:  26; 6HR MAX TEMP:  38;

OLATHE EXE     CLEAR     31  28  89 CALM      30.09F
6HR MIN TEMP:  29; 6HR MAX TEMP:  39;

SALINA         CLEAR     31  27  85 SW10      30.12S WCI  22
6HR MIN TEMP:  25; 6HR MAX TEMP:  44;

TOPEKA BILLARD CLEAR     29  25  85 CALM      30.11F
6HR MIN TEMP:  28; 6HR MAX TEMP:  41;

TOPEKA FORBES  CLEAR     28  23  81 CALM      30.10F
6HR MIN TEMP:  27; 6HR MAX TEMP:  42;

$$


USA.gov is the U.S. government's official web portal to all federal, state and local government web resources and services.